Time,TemperatureF,DewpointF,PressureIn,WindDirection,WindDirectionDegrees,WindSpeedMPH,WindSpeedGustMPH,Humidity,HourlyPrecipIn,Conditions,Clouds,dailyrainin,SolarRadiationWatts/m^2,SoftwareType,DateUTC
2013-06-16 00:02:00,63.0,61.8,29.91,West,263,0.0,0.0,96,0.00,,,0.00,0,Wunderground v.1.15,2013-06-16 05:02:00,
2013-06-16 00:08:00,62.9,61.7,29.91,West,263,0.0,0.0,96,0.00,,,0.00,0,Wunderground v.1.15,2013-06-16 05:08:00,
2013-06-16 00:13:00,62.8,61.9,29.91,West,263,0.0,0.0,97,0.00,,,0.00,0,Wunderground v.1.15,2013-06-16 05:13:00,
2013-06-16 00:18:00,62.7,61.8,29.91,West,263,0.0,0.0,97,0.00,,,0.00,0,Wunderground v.1.15,2013-06-16 05:18:00,
2013-06-16 00:23:00,62.6,61.7,29.91,West,263,0.0,1.0,97,0.00,,,0.00,0,Wunderground v.1.15,2013-06-16 05:23:00,
2013-06-16 00:28:00,62.5,61.6,29.92,West,263,0.0,1.0,97,0.00,,,0.00,0,Wunderground v.1.15,2013-06-16 05:28:00,
2013-06-16 00:34:00,62.3,61.1,29.92,West,263,0.0,3.0,96,0.00,,,0.00,0,Wunderground v.1.15,2013-06-16 05:34:00,
2013-06-16 00:39:00,62.2,61.0,29.92,West,263,2.0,3.0,96,0.00,,,0.00,0,Wunderground v.1.15,2013-06-16 05:39:00,
2013-06-16 00:44:00,62.1,61.2,29.92,West,263,4.0,5.0,97,0.00,,,0.00,0,Wunderground v.1.15,2013-06-16 05:44:00,
2013-06-16 00:49:00,62.0,61.1,29.93,WSW,251,0.0,5.0,97,0.00,,,0.00,0,Wunderground v.1.15,2013-06-16 05:49:00,
2013-06-16 00:54:00,61.9,61.0,29.93,WSW,250,3.0,3.0,97,0.00,,,0.00,0,Wunderground v.1.15,2013-06-16 05:54:00,
2013-06-16 00:59:00,61.9,61.0,29.92,WSW,251,0.0,3.0,97,0.00,,,0.00,0,Wunderground v.1.15,2013-06-16 05:59:00,
2013-06-16 01:05:00,61.9,61.0,29.92,WSW,254,2.0,2.0,97,0.00,,,0.00,0,Wunderground v.1.15,2013-06-16 06:05:00,
2013-06-16 01:10:00,61.9,61.0,29.92,WNW,290,1.0,1.0,97,0.00,,,0.00,0,Wunderground v.1.15,2013-06-16 06:10:00,
2013-06-16 01:15:00,62.1,61.2,29.92,WNW,296,2.0,4.0,97,0.00,,,0.00,0,Wunderground v.1.15,2013-06-16 06:15:00,
2013-06-16 01:20:00,62.1,61.2,29.91,WNW,296,5.0,5.0,97,0.00,,,0.00,0,Wunderground v.1.15,2013-06-16 06:20:00,
2013-06-16 01:25:00,62.1,61.2,29.91,WNW,300,2.0,5.0,97,0.00,,,0.00,0,Wunderground v.1.15,2013-06-16 06:25:00,
2013-06-16 01:30:00,62.1,61.2,29.91,WNW,295,5.0,5.0,97,0.00,,,0.00,0,Wunderground v.1.15,2013-06-16 06:30:00,
2013-06-16 01:36:00,62.1,61.2,29.91,WNW,300,0.0,5.0,97,0.00,,,0.00,0,Wunderground v.1.15,2013-06-16 06:36:00,
2013-06-16 01:41:00,62.1,61.2,29.91,WNW,299,0.0,2.0,97,0.00,,,0.00,0,Wunderground v.1.15,2013-06-16 06:41:00,
2013-06-16 01:47:00,62.1,61.2,29.91,WNW,299,0.0,4.0,97,0.00,,,0.00,0,Wunderground v.1.15,2013-06-16 06:47:00,
2013-06-16 01:52:00,62.0,61.1,29.91,WNW,299,0.0,1.0,97,0.00,,,0.00,0,Wunderground v.1.15,2013-06-16 06:52:00,
2013-06-16 01:58:00,61.9,61.0,29.91,WNW,299,1.0,2.0,97,0.00,,,0.00,0,Wunderground v.1.15,2013-06-16 06:58:00,
2013-06-16 02:03:00,61.9,61.0,29.91,WNW,299,2.0,6.0,97,0.00,,,0.00,0,Wunderground v.1.15,2013-06-16 07:03:00,
2013-06-16 02:08:00,62.0,61.1,29.91,WNW,301,5.0,6.0,97,0.00,,,0.00,0,Wunderground v.1.15,2013-06-16 07:08:00,
2013-06-16 02:13:00,61.9,61.0,29.91,WNW,300,0.0,3.0,97,0.00,,,0.00,0,Wunderground v.1.15,2013-06-16 07:13:00,
2013-06-16 02:18:00,61.8,60.9,29.91,WNW,300,1.0,5.0,97,0.00,,,0.00,0,Wunderground v.1.15,2013-06-16 07:18:00,
2013-06-16 02:23:00,61.8,60.9,29.91,WNW,300,1.0,4.0,97,0.00,,,0.00,0,Wunderground v.1.15,2013-06-16 07:23:00,
2013-06-16 02:28:00,61.7,60.8,29.91,WNW,300,2.0,4.0,97,0.00,,,0.00,0,Wunderground v.1.15,2013-06-16 07:28:00,
2013-06-16 02:33:00,61.5,60.6,29.90,WNW,300,0.0,1.0,97,0.00,,,0.00,0,Wunderground v.1.15,2013-06-16 07:33:00,
2013-06-16 02:38:00,61.4,60.5,29.91,WNW,300,0.0,1.0,97,0.00,,,0.00,0,Wunderground v.1.15,2013-06-16 07:38:00,
2013-06-16 02:43:00,61.4,60.5,29.91,WNW,300,0.0,0.0,97,0.00,,,0.00,0,Wunderground v.1.15,2013-06-16 07:43:00,
2013-06-16 02:48:00,61.4,60.8,29.91,WNW,290,0.0,7.0,98,0.00,,,0.00,0,Wunderground v.1.15,2013-06-16 07:48:00,
2013-06-16 02:53:00,61.6,61.0,29.91,WNW,292,0.0,6.0,98,0.00,,,0.00,0,Wunderground v.1.15,2013-06-16 07:53:00,
2013-06-16 02:58:00,61.6,61.0,29.91,WNW,292,1.0,6.0,98,0.00,,,0.00,0,Wunderground v.1.15,2013-06-16 07:58:00,
2013-06-16 03:03:00,61.6,61.0,29.92,WNW,292,1.0,5.0,98,0.00,,,0.00,0,Wunderground v.1.15,2013-06-16 08:03:00,
2013-06-16 03:08:00,61.6,60.7,29.92,WNW,296,0.0,7.0,97,0.00,,,0.00,0,Wunderground v.1.15,2013-06-16 08:08:00,
2013-06-16 03:13:00,61.5,60.6,29.92,WNW,292,6.0,8.0,97,0.00,,,0.00,0,Wunderground v.1.15,2013-06-16 08:13:00,
2013-06-16 03:18:00,61.3,60.4,29.92,NW,306,2.0,9.0,97,0.00,,,0.00,0,Wunderground v.1.15,2013-06-16 08:18:00,
2013-06-16 03:23:00,61.2,60.3,29.91,West,278,1.0,7.0,97,0.00,,,0.00,0,Wunderground v.1.15,2013-06-16 08:23:00,
2013-06-16 03:28:00,61.1,60.2,29.92,WNW,299,1.0,8.0,97,0.00,,,0.00,0,Wunderground v.1.15,2013-06-16 08:28:00,
2013-06-16 03:33:00,61.1,60.2,29.92,WNW,283,5.0,7.0,97,0.00,,,0.00,0,Wunderground v.1.15,2013-06-16 08:33:00,
2013-06-16 03:38:00,61.0,60.4,29.92,WNW,286,0.0,8.0,98,0.00,,,0.00,0,Wunderground v.1.15,2013-06-16 08:38:00,
2013-06-16 03:43:00,61.0,60.4,29.92,WNW,284,0.0,6.0,98,0.00,,,0.00,0,Wunderground v.1.15,2013-06-16 08:43:00,
2013-06-16 03:48:00,61.0,60.4,29.92,West,278,1.0,7.0,98,0.00,,,0.00,0,Wunderground v.1.15,2013-06-16 08:48:00,
2013-06-16 03:53:00,60.9,60.3,29.92,West,277,4.0,5.0,98,0.00,,,0.00,0,Wunderground v.1.15,2013-06-16 08:53:00,
2013-06-16 03:58:00,61.0,60.4,29.92,West,277,0.0,5.0,98,0.00,,,0.00,0,Wunderground v.1.15,2013-06-16 08:58:00,
2013-06-16 04:03:00,61.0,60.4,29.92,West,277,0.0,5.0,98,0.00,,,0.00,0,Wunderground v.1.15,2013-06-16 09:03:00,
2013-06-16 04:08:00,61.0,60.4,29.92,West,270,0.0,6.0,98,0.00,,,0.00,0,Wunderground v.1.15,2013-06-16 09:08:00,
2013-06-16 04:13:00,61.0,60.4,29.93,West,267,0.0,5.0,98,0.00,,,0.00,0,Wunderground v.1.15,2013-06-16 09:13:00,
2013-06-16 04:18:00,61.0,60.4,29.92,WSW,257,0.0,5.0,98,0.00,,,0.00,0,Wunderground v.1.15,2013-06-16 09:18:00,
2013-06-16 04:23:00,60.9,60.3,29.93,WSW,257,0.0,2.0,98,0.00,,,0.00,0,Wunderground v.1.15,2013-06-16 09:23:00,
2013-06-16 04:28:00,60.9,60.3,29.93,WSW,257,0.0,3.0,98,0.00,,,0.00,0,Wunderground v.1.15,2013-06-16 09:28:00,
2013-06-16 04:33:00,60.8,60.2,29.93,WNW,283,4.0,4.0,98,0.00,,,0.00,0,Wunderground v.1.15,2013-06-16 09:33:00,
2013-06-16 04:38:00,60.7,60.1,29.93,WNW,284,0.0,4.0,98,0.00,,,0.00,0,Wunderground v.1.15,2013-06-16 09:38:00,
2013-06-16 04:43:00,60.7,60.1,29.93,WNW,283,0.0,5.0,98,0.00,,,0.00,0,Wunderground v.1.15,2013-06-16 09:43:00,
2013-06-16 04:48:00,60.6,60.0,29.93,WNW,283,0.0,5.0,98,0.00,,,0.00,0,Wunderground v.1.15,2013-06-16 09:48:00,
2013-06-16 04:53:00,60.6,60.0,29.93,West,281,0.0,2.0,98,0.00,,,0.00,0,Wunderground v.1.15,2013-06-16 09:53:00,
2013-06-16 04:59:00,60.6,60.0,29.93,West,281,0.0,4.0,98,0.00,,,0.00,0,Wunderground v.1.15,2013-06-16 09:59:00,
2013-06-16 05:04:00,60.6,60.0,29.93,West,281,0.0,1.0,98,0.00,,,0.00,0,Wunderground v.1.15,2013-06-16 10:04:00,
2013-06-16 05:09:00,60.6,60.0,29.93,West,281,0.0,1.0,98,0.00,,,0.00,0,Wunderground v.1.15,2013-06-16 10:09:00,
2013-06-16 05:14:00,-999.9,-99.9,29.93,North,32767,-999.0,-999.0,255,-99.99,,,0.00,,Wunderground v.1.15,2013-06-16 10:14:00,
2013-06-16 05:19:00,-999.9,-99.9,29.93,North,32767,-999.0,-999.0,255,-99.99,,,0.00,,Wunderground v.1.15,2013-06-16 10:19:00,
2013-06-16 05:24:00,-999.9,-99.9,29.94,North,32767,-999.0,-999.0,255,-99.99,,,0.00,,Wunderground v.1.15,2013-06-16 10:24:00,
2013-06-16 05:29:00,-999.9,-99.9,29.94,North,32767,-999.0,-999.0,255,-99.99,,,0.00,,Wunderground v.1.15,2013-06-16 10:29:00,
2013-06-16 05:34:00,-999.9,-99.9,29.94,North,32767,-999.0,-999.0,255,-99.99,,,0.00,,Wunderground v.1.15,2013-06-16 10:34:00,
2013-06-16 05:39:00,-999.9,-99.9,29.94,North,32767,-999.0,-999.0,255,-99.99,,,0.00,,Wunderground v.1.15,2013-06-16 10:39:00,
2013-06-16 05:44:00,-999.9,-99.9,29.94,North,32767,-999.0,-999.0,255,-99.99,,,0.00,,Wunderground v.1.15,2013-06-16 10:44:00,
2013-06-16 05:49:00,-999.9,-99.9,29.94,North,32767,-999.0,-999.0,255,-99.99,,,0.00,,Wunderground v.1.15,2013-06-16 10:49:00,
2013-06-16 05:54:00,-999.9,-99.9,29.95,North,32767,-999.0,-999.0,255,-99.99,,,0.00,,Wunderground v.1.15,2013-06-16 10:54:00,
2013-06-16 06:00:00,-999.9,-99.9,29.95,North,32767,-999.0,-999.0,255,-99.99,,,0.00,,Wunderground v.1.15,2013-06-16 11:00:00,
2013-06-16 06:05:00,-999.9,-99.9,29.95,North,32767,-999.0,-999.0,255,-99.99,,,0.00,,Wunderground v.1.15,2013-06-16 11:05:00,
2013-06-16 06:10:00,-999.9,-99.9,29.95,North,32767,-999.0,-999.0,255,-99.99,,,0.00,,Wunderground v.1.15,2013-06-16 11:10:00,
2013-06-16 06:15:00,-999.9,-99.9,29.95,North,32767,-999.0,-999.0,255,-99.99,,,0.00,,Wunderground v.1.15,2013-06-16 11:15:00,
2013-06-16 06:20:00,-999.9,-99.9,29.95,North,32767,-999.0,-999.0,255,-99.99,,,0.00,,Wunderground v.1.15,2013-06-16 11:20:00,
2013-06-16 06:25:00,-999.9,-99.9,29.95,North,32767,-999.0,-999.0,255,-99.99,,,0.00,,Wunderground v.1.15,2013-06-16 11:25:00,
2013-06-16 06:30:00,-999.9,-99.9,29.95,North,32767,-999.0,-999.0,255,-99.99,,,0.00,,Wunderground v.1.15,2013-06-16 11:30:00,
2013-06-16 06:35:00,-999.9,-99.9,29.95,North,32767,-999.0,-999.0,255,-99.99,,,0.00,,Wunderground v.1.15,2013-06-16 11:35:00,
2013-06-16 06:40:00,-999.9,-99.9,29.95,North,32767,-999.0,-999.0,255,-99.99,,,0.00,,Wunderground v.1.15,2013-06-16 11:40:00,
2013-06-16 06:45:00,-999.9,-99.9,29.95,North,32767,-999.0,-999.0,255,-99.99,,,0.00,,Wunderground v.1.15,2013-06-16 11:45:00,
2013-06-16 06:50:00,-999.9,-99.9,29.95,North,32767,-999.0,-999.0,255,-99.99,,,0.00,,Wunderground v.1.15,2013-06-16 11:50:00,
2013-06-16 06:55:00,-999.9,-99.9,29.95,North,32767,-999.0,-999.0,255,-99.99,,,0.00,,Wunderground v.1.15,2013-06-16 11:55:00,
2013-06-16 07:00:00,-999.9,-99.9,29.95,North,32767,-999.0,-999.0,255,-99.99,,,0.00,,Wunderground v.1.15,2013-06-16 12:00:00,
2013-06-16 07:05:00,-999.9,-99.9,29.95,North,32767,-999.0,-999.0,255,-99.99,,,0.00,,Wunderground v.1.15,2013-06-16 12:05:00,
2013-06-16 07:10:00,-999.9,-99.9,29.95,North,32767,-999.0,-999.0,255,-99.99,,,0.00,,Wunderground v.1.15,2013-06-16 12:10:00,
2013-06-16 07:15:00,-999.9,-99.9,29.95,North,32767,-999.0,-999.0,255,-99.99,,,0.00,,Wunderground v.1.15,2013-06-16 12:15:00,
2013-06-16 07:21:00,-999.9,-99.9,29.95,North,32767,-999.0,-999.0,255,-99.99,,,0.00,,Wunderground v.1.15,2013-06-16 12:21:00,
2013-06-16 07:26:00,-999.9,-99.9,29.95,North,32767,-999.0,-999.0,255,-99.99,,,0.00,,Wunderground v.1.15,2013-06-16 12:26:00,
2013-06-16 07:31:00,-999.9,-99.9,29.95,North,32767,-999.0,-999.0,255,-99.99,,,0.00,,Wunderground v.1.15,2013-06-16 12:31:00,
2013-06-16 07:36:00,-999.9,-99.9,29.95,North,32767,-999.0,-999.0,255,-99.99,,,0.00,,Wunderground v.1.15,2013-06-16 12:36:00,
2013-06-16 07:41:00,-999.9,-99.9,29.95,North,32767,-999.0,-999.0,255,-99.99,,,0.00,,Wunderground v.1.15,2013-06-16 12:41:00,
2013-06-16 07:46:00,-999.9,-99.9,29.95,North,32767,-999.0,-999.0,255,-99.99,,,0.00,,Wunderground v.1.15,2013-06-16 12:46:00,
2013-06-16 07:51:00,-999.9,-99.9,29.95,North,32767,-999.0,-999.0,255,-99.99,,,0.00,,Wunderground v.1.15,2013-06-16 12:51:00,
2013-06-16 07:56:00,-999.9,-99.9,29.95,North,32767,-999.0,-999.0,255,-99.99,,,0.00,,Wunderground v.1.15,2013-06-16 12:56:00,
2013-06-16 08:01:00,-999.9,-99.9,29.95,North,32767,-999.0,-999.0,255,-99.99,,,0.00,,Wunderground v.1.15,2013-06-16 13:01:00,
2013-06-16 08:06:00,-999.9,-99.9,29.95,North,32767,-999.0,-999.0,255,-99.99,,,0.00,,Wunderground v.1.15,2013-06-16 13:06:00,
2013-06-16 08:11:00,-999.9,-99.9,29.95,North,32767,-999.0,-999.0,255,-99.99,,,0.00,,Wunderground v.1.15,2013-06-16 13:11:00,
2013-06-16 08:16:00,-999.9,-99.9,29.95,North,32767,-999.0,-999.0,255,-99.99,,,0.00,,Wunderground v.1.15,2013-06-16 13:16:00,
2013-06-16 08:21:00,-999.9,-99.9,29.95,North,32767,-999.0,-999.0,255,-99.99,,,0.00,,Wunderground v.1.15,2013-06-16 13:21:00,
2013-06-16 08:26:00,-999.9,-99.9,29.94,North,32767,-999.0,-999.0,255,-99.99,,,0.00,,Wunderground v.1.15,2013-06-16 13:26:00,
2013-06-16 08:32:00,-999.9,-99.9,29.95,North,32767,-999.0,-999.0,255,-99.99,,,0.00,,Wunderground v.1.15,2013-06-16 13:32:00,
2013-06-16 08:37:00,-999.9,-99.9,29.94,North,32767,-999.0,-999.0,255,-99.99,,,0.00,,Wunderground v.1.15,2013-06-16 13:37:00,
2013-06-16 08:42:00,-999.9,-99.9,29.94,North,32767,-999.0,-999.0,255,-99.99,,,0.00,,Wunderground v.1.15,2013-06-16 13:42:00,
2013-06-16 08:47:00,-999.9,-99.9,29.95,North,32767,-999.0,-999.0,255,-99.99,,,0.00,,Wunderground v.1.15,2013-06-16 13:47:00,
2013-06-16 08:52:00,-999.9,-99.9,29.94,North,32767,-999.0,-999.0,255,-99.99,,,0.00,,Wunderground v.1.15,2013-06-16 13:52:00,
2013-06-16 08:57:00,-999.9,-99.9,29.94,North,32767,-999.0,-999.0,255,-99.99,,,0.00,,Wunderground v.1.15,2013-06-16 13:57:00,
2013-06-16 09:02:00,-999.9,-99.9,29.94,North,32767,-999.0,-999.0,255,-99.99,,,0.00,,Wunderground v.1.15,2013-06-16 14:02:00,
2013-06-16 09:07:00,-999.9,-99.9,29.94,North,32767,-999.0,-999.0,255,-99.99,,,0.00,,Wunderground v.1.15,2013-06-16 14:07:00,
2013-06-16 09:12:00,-999.9,-99.9,29.95,North,32767,-999.0,-999.0,255,-99.99,,,0.00,,Wunderground v.1.15,2013-06-16 14:12:00,
2013-06-16 09:17:00,-999.9,-99.9,29.94,North,32767,-999.0,-999.0,255,-99.99,,,0.00,,Wunderground v.1.15,2013-06-16 14:17:00,
2013-06-16 09:22:00,-999.9,-99.9,29.94,North,32767,-999.0,-999.0,255,-99.99,,,0.00,,Wunderground v.1.15,2013-06-16 14:22:00,
2013-06-16 09:27:00,-999.9,-99.9,29.95,North,32767,-999.0,-999.0,255,-99.99,,,0.00,,Wunderground v.1.15,2013-06-16 14:27:00,
2013-06-16 09:32:00,-999.9,-99.9,29.94,North,32767,-999.0,-999.0,255,-99.99,,,0.00,,Wunderground v.1.15,2013-06-16 14:32:00,
2013-06-16 09:37:00,-999.9,-99.9,29.95,North,32767,-999.0,-999.0,255,-99.99,,,0.00,,Wunderground v.1.15,2013-06-16 14:37:00,
2013-06-16 09:42:00,-999.9,-99.9,29.95,North,32767,-999.0,-999.0,255,-99.99,,,0.00,,Wunderground v.1.15,2013-06-16 14:42:00,
2013-06-16 09:47:00,-999.9,-99.9,29.95,North,32767,-999.0,-999.0,255,-99.99,,,0.00,,Wunderground v.1.15,2013-06-16 14:47:00,
2013-06-16 09:52:00,-999.9,-99.9,29.95,North,32767,-999.0,-999.0,255,-99.99,,,0.00,,Wunderground v.1.15,2013-06-16 14:52:00,
2013-06-16 09:57:00,-999.9,-99.9,29.95,North,32767,-999.0,-999.0,255,-99.99,,,0.00,,Wunderground v.1.15,2013-06-16 14:57:00,
2013-06-16 10:02:00,-999.9,-99.9,29.95,North,32767,-999.0,-999.0,255,-99.99,,,0.00,,Wunderground v.1.15,2013-06-16 15:02:00,
2013-06-16 10:07:00,-999.9,-99.9,29.95,North,32767,-999.0,-999.0,255,-99.99,,,0.00,,Wunderground v.1.15,2013-06-16 15:07:00,
2013-06-16 10:12:00,-999.9,-99.9,29.95,North,32767,-999.0,-999.0,255,-99.99,,,0.00,,Wunderground v.1.15,2013-06-16 15:12:00,
2013-06-16 10:17:00,-999.9,-99.9,29.95,North,32767,-999.0,-999.0,255,-99.99,,,0.00,,Wunderground v.1.15,2013-06-16 15:17:00,
2013-06-16 10:22:00,-999.9,-99.9,29.94,North,32767,-999.0,-999.0,255,-99.99,,,0.00,,Wunderground v.1.15,2013-06-16 15:22:00,
2013-06-16 10:27:00,-999.9,-99.9,29.94,North,32767,-999.0,-999.0,255,-99.99,,,0.00,,Wunderground v.1.15,2013-06-16 15:27:00,
2013-06-16 10:32:00,-999.9,-99.9,29.94,North,32767,-999.0,-999.0,255,-99.99,,,0.00,,Wunderground v.1.15,2013-06-16 15:32:00,
2013-06-16 10:37:00,-999.9,-99.9,29.95,North,32767,-999.0,-999.0,255,-99.99,,,0.00,,Wunderground v.1.15,2013-06-16 15:37:00,
2013-06-16 10:42:00,-999.9,-99.9,29.94,North,32767,-999.0,-999.0,255,-99.99,,,0.00,,Wunderground v.1.15,2013-06-16 15:42:00,
2013-06-16 10:47:00,-999.9,-99.9,29.94,North,32767,-999.0,-999.0,255,-99.99,,,0.00,,Wunderground v.1.15,2013-06-16 15:47:00,
2013-06-16 10:52:00,-999.9,-99.9,29.95,North,32767,-999.0,-999.0,255,-99.99,,,0.00,,Wunderground v.1.15,2013-06-16 15:52:00,
2013-06-16 10:57:00,-999.9,-99.9,29.95,North,32767,-999.0,-999.0,255,-99.99,,,0.00,,Wunderground v.1.15,2013-06-16 15:57:00,
2013-06-16 11:02:00,-999.9,-99.9,29.94,North,32767,-999.0,-999.0,255,-99.99,,,0.00,,Wunderground v.1.15,2013-06-16 16:02:00,
2013-06-16 11:07:00,-999.9,-99.9,29.94,North,32767,-999.0,-999.0,255,-99.99,,,0.00,,Wunderground v.1.15,2013-06-16 16:07:00,
2013-06-16 11:13:00,-999.9,-99.9,29.94,North,32767,-999.0,-999.0,255,-99.99,,,0.00,,Wunderground v.1.15,2013-06-16 16:13:00,
2013-06-16 11:18:00,-999.9,-99.9,29.95,North,32767,-999.0,-999.0,255,-99.99,,,0.00,,Wunderground v.1.15,2013-06-16 16:18:00,
2013-06-16 11:23:00,-999.9,-99.9,29.94,North,32767,-999.0,-999.0,255,-99.99,,,0.00,,Wunderground v.1.15,2013-06-16 16:23:00,
2013-06-16 11:28:00,-999.9,-99.9,29.94,North,32767,-999.0,-999.0,255,-99.99,,,0.00,,Wunderground v.1.15,2013-06-16 16:28:00,
2013-06-16 11:33:00,-999.9,-99.9,29.94,North,32767,-999.0,-999.0,255,-99.99,,,0.00,,Wunderground v.1.15,2013-06-16 16:33:00,
2013-06-16 11:38:00,-999.9,-99.9,29.94,North,32767,-999.0,-999.0,255,-99.99,,,0.00,,Wunderground v.1.15,2013-06-16 16:38:00,
2013-06-16 11:43:00,-999.9,-99.9,29.94,North,32767,-999.0,-999.0,255,-99.99,,,0.00,,Wunderground v.1.15,2013-06-16 16:43:00,
2013-06-16 11:48:00,-999.9,-99.9,29.94,North,32767,-999.0,-999.0,255,-99.99,,,0.00,,Wunderground v.1.15,2013-06-16 16:48:00,
2013-06-16 11:53:00,-999.9,-99.9,29.94,North,32767,-999.0,-999.0,255,-99.99,,,0.00,,Wunderground v.1.15,2013-06-16 16:53:00,
2013-06-16 11:58:00,-999.9,-99.9,29.94,North,32767,-999.0,-999.0,255,-99.99,,,0.00,,Wunderground v.1.15,2013-06-16 16:58:00,
2013-06-16 12:03:00,-999.9,-99.9,29.95,North,32767,-999.0,-999.0,255,-99.99,,,0.00,,Wunderground v.1.15,2013-06-16 17:03:00,
2013-06-16 12:08:00,-999.9,-99.9,29.95,North,32767,-999.0,-999.0,255,-99.99,,,0.00,,Wunderground v.1.15,2013-06-16 17:08:00,
2013-06-16 12:13:00,-999.9,-99.9,29.95,North,32767,-999.0,-999.0,255,-99.99,,,0.00,,Wunderground v.1.15,2013-06-16 17:13:00,
2013-06-16 12:19:00,-999.9,-99.9,29.95,North,32767,-999.0,-999.0,255,-99.99,,,0.00,,Wunderground v.1.15,2013-06-16 17:19:00,
2013-06-16 12:24:00,-999.9,-99.9,29.94,North,32767,-999.0,-999.0,255,-99.99,,,0.00,,Wunderground v.1.15,2013-06-16 17:24:00,
2013-06-16 12:29:00,-999.9,-99.9,29.94,North,32767,-999.0,-999.0,255,-99.99,,,0.00,,Wunderground v.1.15,2013-06-16 17:29:00,
2013-06-16 12:34:00,-999.9,-99.9,29.95,North,32767,-999.0,-999.0,255,-99.99,,,0.00,,Wunderground v.1.15,2013-06-16 17:34:00,
2013-06-16 12:39:00,-999.9,-99.9,29.95,North,32767,-999.0,-999.0,255,-99.99,,,0.00,,Wunderground v.1.15,2013-06-16 17:39:00,
2013-06-16 12:44:00,-999.9,-99.9,29.95,North,32767,-999.0,-999.0,255,-99.99,,,0.00,,Wunderground v.1.15,2013-06-16 17:44:00,
2013-06-16 12:49:00,79.2,58.4,29.95,WNW,300,7.0,8.0,49,0.00,,,0.00,993,Wunderground v.1.15,2013-06-16 17:49:00,
2013-06-16 12:54:00,79.3,55.5,29.95,NW,317,9.0,15.0,44,0.00,,,0.00,779,Wunderground v.1.15,2013-06-16 17:54:00,
2013-06-16 12:59:00,79.3,55.5,29.95,West,274,12.0,21.0,44,0.00,,,0.00,995,Wunderground v.1.15,2013-06-16 17:59:00,
2013-06-16 13:04:00,79.4,58.6,29.95,WSW,251,2.0,11.0,49,0.00,,,0.00,988,Wunderground v.1.15,2013-06-16 18:04:00,
2013-06-16 13:09:00,79.4,55.6,29.94,West,277,13.0,13.0,44,0.00,,,0.00,1002,Wunderground v.1.15,2013-06-16 18:09:00,
2013-06-16 13:14:00,79.5,58.7,29.94,NNW,332,1.0,12.0,49,0.00,,,0.00,983,Wunderground v.1.15,2013-06-16 18:14:00,
2013-06-16 13:19:00,79.5,55.7,29.94,West,281,5.0,13.0,44,0.00,,,0.00,984,Wunderground v.1.15,2013-06-16 18:19:00,
2013-06-16 13:24:00,79.7,58.3,29.94,WNW,284,5.0,15.0,48,0.00,,,0.00,981,Wunderground v.1.15,2013-06-16 18:24:00,
2013-06-16 13:29:00,79.8,57.2,29.94,SSW,208,4.0,16.0,46,0.00,,,0.00,990,Wunderground v.1.15,2013-06-16 18:29:00,
2013-06-16 13:34:00,79.9,56.0,29.94,WNW,294,2.0,12.0,44,0.00,,,0.00,1013,Wunderground v.1.15,2013-06-16 18:34:00,
2013-06-16 13:39:00,79.7,57.7,29.94,WNW,293,1.0,13.0,47,0.00,,,0.00,1027,Wunderground v.1.15,2013-06-16 18:39:00,
2013-06-16 13:44:00,79.6,58.8,29.94,West,261,10.0,10.0,49,0.00,,,0.00,918,Wunderground v.1.15,2013-06-16 18:44:00,
2013-06-16 13:49:00,79.6,58.8,29.95,West,276,4.0,15.0,49,0.00,,,0.00,151,Wunderground v.1.15,2013-06-16 18:49:00,
2013-06-16 13:54:00,79.7,57.7,29.95,WNW,289,4.0,13.0,47,0.00,,,0.00,1081,Wunderground v.1.15,2013-06-16 18:54:00,
2013-06-16 13:59:00,79.9,58.5,29.94,SW,231,7.0,13.0,48,0.00,,,0.00,1071,Wunderground v.1.15,2013-06-16 18:59:00,
2013-06-16 14:04:00,79.9,57.9,29.95,West,275,9.0,12.0,47,0.00,,,0.00,995,Wunderground v.1.15,2013-06-16 19:04:00,
2013-06-16 14:09:00,80.0,58.0,29.94,SW,222,6.0,12.0,47,0.00,,,0.00,969,Wunderground v.1.15,2013-06-16 19:09:00,
2013-06-16 14:14:00,80.0,58.0,29.94,SW,232,1.0,10.0,47,0.00,,,0.00,960,Wunderground v.1.15,2013-06-16 19:14:00,
2013-06-16 14:19:00,80.1,56.2,29.94,NW,310,13.0,13.0,44,0.00,,,0.00,977,Wunderground v.1.15,2013-06-16 19:19:00,
2013-06-16 14:25:00,80.2,56.3,29.94,NW,309,1.0,10.0,44,0.00,,,0.00,953,Wunderground v.1.15,2013-06-16 19:25:00,
2013-06-16 14:30:00,80.3,56.4,29.94,NW,307,4.0,4.0,44,0.00,,,0.00,167,Wunderground v.1.15,2013-06-16 19:30:00,
2013-06-16 14:35:00,80.2,56.9,29.94,West,263,1.0,12.0,45,0.00,,,0.00,1014,Wunderground v.1.15,2013-06-16 19:35:00,
2013-06-16 14:40:00,80.0,56.1,29.94,NW,306,15.0,15.0,44,0.00,,,0.00,134,Wunderground v.1.15,2013-06-16 19:40:00,
2013-06-16 14:45:00,79.8,55.3,29.94,West,271,4.0,18.0,43,0.00,,,0.00,949,Wunderground v.1.15,2013-06-16 19:45:00,
2013-06-16 14:50:00,80.3,56.4,29.94,NW,319,10.0,10.0,44,0.00,,,0.00,953,Wunderground v.1.15,2013-06-16 19:50:00,
2013-06-16 14:55:00,80.4,55.2,29.94,WNW,296,8.0,19.0,42,0.00,,,0.00,914,Wunderground v.1.15,2013-06-16 19:55:00,
2013-06-16 15:00:00,80.6,55.4,29.94,NW,306,6.0,8.0,42,0.00,,,0.00,911,Wunderground v.1.15,2013-06-16 20:00:00,
2013-06-16 15:05:00,80.7,55.5,29.94,West,259,5.0,11.0,42,0.00,,,0.00,933,Wunderground v.1.15,2013-06-16 20:05:00,
2013-06-16 15:10:00,81.0,60.0,29.94,WSW,244,12.0,12.0,49,0.00,,,0.00,902,Wunderground v.1.15,2013-06-16 20:10:00,
2013-06-16 15:15:00,81.0,57.7,29.94,NW,311,0.0,20.0,45,0.00,,,0.00,868,Wunderground v.1.15,2013-06-16 20:15:00,
2013-06-16 15:20:00,81.2,56.6,29.94,WNW,298,6.0,6.0,43,0.00,,,0.00,858,Wunderground v.1.15,2013-06-16 20:20:00,
2013-06-16 15:25:00,81.3,55.3,29.94,North,11,6.0,12.0,41,0.00,,,0.00,856,Wunderground v.1.15,2013-06-16 20:25:00,
2013-06-16 15:30:00,81.3,56.7,29.94,SW,229,3.0,6.0,43,0.00,,,0.00,835,Wunderground v.1.15,2013-06-16 20:30:00,
2013-06-16 15:35:00,81.0,56.4,29.94,WSW,244,0.0,17.0,43,0.00,,,0.00,840,Wunderground v.1.15,2013-06-16 20:35:00,
2013-06-16 15:40:00,81.0,55.1,29.94,SW,232,11.0,12.0,41,0.00,,,0.00,835,Wunderground v.1.15,2013-06-16 20:40:00,
2013-06-16 15:45:00,81.2,56.6,29.94,WSW,245,15.0,18.0,43,0.00,,,0.00,896,Wunderground v.1.15,2013-06-16 20:45:00,
2013-06-16 15:50:00,81.1,55.2,29.94,SW,220,11.0,13.0,41,0.00,,,0.00,865,Wunderground v.1.15,2013-06-16 20:50:00,
2013-06-16 15:55:00,81.1,56.5,29.94,WSW,239,5.0,14.0,43,0.00,,,0.00,802,Wunderground v.1.15,2013-06-16 20:55:00,
2013-06-16 16:00:00,81.3,56.7,29.94,SW,224,6.0,9.0,43,0.00,,,0.00,784,Wunderground v.1.15,2013-06-16 21:00:00,
2013-06-16 16:05:00,81.3,55.3,29.94,WSW,246,3.0,12.0,41,0.00,,,0.00,772,Wunderground v.1.15,2013-06-16 21:05:00,
2013-06-16 16:10:00,81.2,55.3,29.94,WSW,247,2.0,7.0,41,0.00,,,0.00,782,Wunderground v.1.15,2013-06-16 21:10:00,
2013-06-16 16:15:00,80.8,56.9,29.94,SW,229,5.0,9.0,44,0.00,,,0.00,118,Wunderground v.1.15,2013-06-16 21:15:00,
2013-06-16 16:20:00,80.1,56.8,29.94,West,260,4.0,4.0,45,0.00,,,0.00,223,Wunderground v.1.15,2013-06-16 21:20:00,
2013-06-16 16:25:00,79.5,57.5,29.94,WSW,243,0.0,11.0,47,0.00,,,0.00,153,Wunderground v.1.15,2013-06-16 21:25:00,
2013-06-16 16:30:00,79.6,57.0,29.94,West,279,5.0,6.0,46,0.00,,,0.00,761,Wunderground v.1.15,2013-06-16 21:30:00,
2013-06-16 16:35:00,79.8,56.6,29.94,West,259,2.0,7.0,45,0.00,,,0.00,128,Wunderground v.1.15,2013-06-16 21:35:00,
2013-06-16 16:40:00,80.3,60.5,29.94,WSW,241,4.0,4.0,51,0.00,,,0.00,663,Wunderground v.1.15,2013-06-16 21:40:00,
2013-06-16 16:45:00,80.9,57.6,29.94,WNW,288,5.0,9.0,45,0.00,,,0.00,640,Wunderground v.1.15,2013-06-16 21:45:00,
2013-06-16 16:50:00,81.4,56.1,29.94,NW,323,4.0,8.0,42,0.00,,,0.00,613,Wunderground v.1.15,2013-06-16 21:50:00,
2013-06-16 16:55:00,81.4,57.4,29.93,West,277,2.0,9.0,44,0.00,,,0.00,120,Wunderground v.1.15,2013-06-16 21:55:00,
2013-06-16 17:00:00,80.8,56.9,29.93,West,261,0.0,2.0,44,0.00,,,0.00,139,Wunderground v.1.15,2013-06-16 22:00:00,
2013-06-16 17:05:00,80.1,57.5,29.93,WNW,283,0.0,8.0,46,0.00,,,0.00,165,Wunderground v.1.15,2013-06-16 22:05:00,
2013-06-16 17:11:00,79.9,58.5,29.93,WSW,254,0.0,1.0,48,0.00,,,0.00,603,Wunderground v.1.15,2013-06-16 22:11:00,
2013-06-16 17:15:00,80.0,58.5,29.93,WSW,237,1.0,7.0,48,0.00,,,0.00,380,Wunderground v.1.15,2013-06-16 22:15:00,
2013-06-16 17:20:00,79.9,57.9,29.93,WSW,254,0.0,3.0,47,0.00,,,0.00,209,Wunderground v.1.15,2013-06-16 22:20:00,
2013-06-16 17:25:00,80.3,57.0,29.93,WNW,302,0.0,9.0,45,0.00,,,0.00,619,Wunderground v.1.15,2013-06-16 22:25:00,
2013-06-16 17:31:00,80.9,57.6,29.93,SW,226,0.0,2.0,45,0.00,,,0.00,548,Wunderground v.1.15,2013-06-16 22:31:00,
2013-06-16 17:35:00,81.3,56.7,29.93,WSW,244,5.0,8.0,43,0.00,,,0.00,497,Wunderground v.1.15,2013-06-16 22:35:00,
2013-06-16 17:40:00,81.2,56.6,29.93,WSW,239,5.0,8.0,43,0.00,,,0.00,480,Wunderground v.1.15,2013-06-16 22:40:00,
2013-06-16 17:46:00,81.1,56.5,29.93,WSW,244,4.0,10.0,43,0.00,,,0.00,469,Wunderground v.1.15,2013-06-16 22:46:00,
2013-06-16 17:50:00,81.1,55.8,29.92,SW,236,6.0,10.0,42,0.00,,,0.00,490,Wunderground v.1.15,2013-06-16 22:50:00,
2013-06-16 17:56:00,80.9,53.6,29.92,WSW,242,7.0,14.0,39,0.00,,,0.00,471,Wunderground v.1.15,2013-06-16 22:56:00,
2013-06-16 18:00:00,81.0,56.4,29.92,WSW,248,4.0,8.0,43,0.00,,,0.00,429,Wunderground v.1.15,2013-06-16 23:00:00,
2013-06-16 18:06:00,81.1,55.8,29.92,WSW,244,6.0,9.0,42,0.00,,,0.00,413,Wunderground v.1.15,2013-06-16 23:06:00,
2013-06-16 18:11:00,81.1,55.8,29.92,West,263,6.0,10.0,42,0.00,,,0.00,401,Wunderground v.1.15,2013-06-16 23:11:00,
2013-06-16 18:16:00,80.5,54.6,29.92,WSW,240,6.0,12.0,41,0.00,,,0.00,86,Wunderground v.1.15,2013-06-16 23:16:00,
2013-06-16 18:21:00,79.8,55.9,29.92,WSW,242,4.0,7.0,44,0.00,,,0.00,392,Wunderground v.1.15,2013-06-16 23:21:00,
2013-06-16 18:26:00,79.6,55.8,29.92,SW,234,6.0,8.0,44,0.00,,,0.00,378,Wunderground v.1.15,2013-06-16 23:26:00,
2013-06-16 18:31:00,79.4,56.2,29.92,WSW,238,4.0,5.0,45,0.00,,,0.00,199,Wunderground v.1.15,2013-06-16 23:31:00,
2013-06-16 18:36:00,79.2,55.4,29.92,WSW,246,5.0,14.0,44,0.00,,,0.00,287,Wunderground v.1.15,2013-06-16 23:36:00,
2013-06-16 18:41:00,79.3,56.1,29.93,WSW,254,3.0,5.0,45,0.00,,,0.00,276,Wunderground v.1.15,2013-06-16 23:41:00,
2013-06-16 18:46:00,79.4,56.2,29.92,SW,236,3.0,7.0,45,0.00,,,0.00,190,Wunderground v.1.15,2013-06-16 23:46:00,
2013-06-16 18:51:00,79.5,57.5,29.92,WSW,249,8.0,8.0,47,0.00,,,0.00,278,Wunderground v.1.15,2013-06-16 23:51:00,
2013-06-16 18:56:00,79.4,56.2,29.92,WSW,244,2.0,12.0,45,0.00,,,0.00,206,Wunderground v.1.15,2013-06-16 23:56:00,
2013-06-16 19:02:00,79.2,55.4,29.92,SW,232,4.0,7.0,44,0.00,,,0.00,229,Wunderground v.1.15,2013-06-17 00:02:00,
2013-06-16 19:07:00,79.0,55.8,29.92,WSW,243,3.0,7.0,45,0.00,,,0.00,204,Wunderground v.1.15,2013-06-17 00:07:00,
2013-06-16 19:12:00,78.9,56.4,29.92,SW,233,2.0,6.0,46,0.00,,,0.00,156,Wunderground v.1.15,2013-06-17 00:12:00,
2013-06-16 19:17:00,78.8,56.3,29.92,WSW,240,5.0,7.0,46,0.00,,,0.00,95,Wunderground v.1.15,2013-06-17 00:17:00,
2013-06-16 19:22:00,78.4,57.7,29.92,WSW,240,3.0,5.0,49,0.00,,,0.00,40,Wunderground v.1.15,2013-06-17 00:22:00,
2013-06-16 19:27:00,78.0,56.7,29.93,WSW,243,4.0,6.0,48,0.00,,,0.00,39,Wunderground v.1.15,2013-06-17 00:27:00,
2013-06-16 19:33:00,77.5,56.8,29.93,SW,234,4.0,6.0,49,0.00,,,0.00,51,Wunderground v.1.15,2013-06-17 00:33:00,
2013-06-16 19:38:00,77.2,56.6,29.93,SW,233,3.0,6.0,49,0.00,,,0.00,54,Wunderground v.1.15,2013-06-17 00:38:00,
2013-06-16 19:43:00,76.9,56.3,29.93,SW,236,3.0,4.0,49,0.00,,,0.00,58,Wunderground v.1.15,2013-06-17 00:43:00,
2013-06-16 19:48:00,76.6,56.6,29.92,WSW,237,4.0,4.0,50,0.00,,,0.00,53,Wunderground v.1.15,2013-06-17 00:48:00,
2013-06-16 19:53:00,76.4,57.5,29.93,WSW,237,4.0,5.0,52,0.00,,,0.00,42,Wunderground v.1.15,2013-06-17 00:53:00,
2013-06-16 19:58:00,76.0,56.6,29.93,SW,236,1.0,6.0,51,0.00,,,0.00,32,Wunderground v.1.15,2013-06-17 00:58:00,
2013-06-16 20:03:00,75.7,56.8,29.92,SW,236,2.0,4.0,52,0.00,,,0.00,26,Wunderground v.1.15,2013-06-17 01:03:00,
2013-06-16 20:08:00,75.5,56.1,29.93,SW,236,0.0,4.0,51,0.00,,,0.00,23,Wunderground v.1.15,2013-06-17 01:08:00,
2013-06-16 20:13:00,75.2,56.4,29.92,SW,236,1.0,4.0,52,0.00,,,0.00,21,Wunderground v.1.15,2013-06-17 01:13:00,
2013-06-16 20:18:00,74.8,56.5,29.92,SW,236,0.0,5.0,53,0.00,,,0.00,16,Wunderground v.1.15,2013-06-17 01:18:00,
2013-06-16 20:23:00,74.5,56.2,29.92,SW,236,0.0,3.0,53,0.00,,,0.00,14,Wunderground v.1.15,2013-06-17 01:23:00,
2013-06-16 20:28:00,74.2,56.5,29.92,SW,236,0.0,3.0,54,0.00,,,0.00,11,Wunderground v.1.15,2013-06-17 01:28:00,
2013-06-16 20:33:00,73.8,57.6,29.92,SW,236,1.0,2.0,57,0.00,,,0.00,7,Wunderground v.1.15,2013-06-17 01:33:00,
2013-06-16 20:38:00,73.5,58.8,29.92,SW,236,0.0,2.0,60,0.00,,,0.00,5,Wunderground v.1.15,2013-06-17 01:38:00,
2013-06-16 20:43:00,73.0,57.8,29.92,SW,236,0.0,1.0,59,0.00,,,0.00,0,Wunderground v.1.15,2013-06-17 01:43:00,
2013-06-16 20:48:00,72.6,58.8,29.92,SW,236,0.0,1.0,62,0.00,,,0.00,0,Wunderground v.1.15,2013-06-17 01:48:00,
2013-06-16 20:53:00,72.2,58.0,29.92,SW,236,0.0,1.0,61,0.00,,,0.00,0,Wunderground v.1.15,2013-06-17 01:53:00,
2013-06-16 20:58:00,71.8,59.8,29.92,SW,236,1.0,1.0,66,0.00,,,0.00,0,Wunderground v.1.15,2013-06-17 01:58:00,
2013-06-16 21:03:00,71.2,58.8,29.92,SW,236,1.0,2.0,65,0.00,,,0.00,0,Wunderground v.1.15,2013-06-17 02:03:00,
2013-06-16 21:08:00,70.7,57.9,29.93,WSW,237,0.0,5.0,64,0.00,,,0.00,0,Wunderground v.1.15,2013-06-17 02:08:00,
2013-06-16 21:13:00,70.7,57.9,29.93,SW,236,0.0,1.0,64,0.00,,,0.00,0,Wunderground v.1.15,2013-06-17 02:13:00,
2013-06-16 21:18:00,70.7,57.9,29.93,SW,236,0.0,1.0,64,0.00,,,0.00,0,Wunderground v.1.15,2013-06-17 02:18:00,
2013-06-16 21:23:00,-999.9,-99.9,29.93,North,32767,-999.0,-999.0,255,-99.99,,,0.00,,Wunderground v.1.15,2013-06-17 02:23:00,
2013-06-16 21:28:00,-999.9,-99.9,29.93,North,32767,-999.0,-999.0,255,-99.99,,,0.00,,Wunderground v.1.15,2013-06-17 02:28:00,
2013-06-16 21:33:00,-999.9,-99.9,29.93,North,32767,-999.0,-999.0,255,-99.99,,,0.00,,Wunderground v.1.15,2013-06-17 02:33:00,
2013-06-16 21:38:00,-999.9,-99.9,29.94,North,32767,-999.0,-999.0,255,-99.99,,,0.00,,Wunderground v.1.15,2013-06-17 02:38:00,
2013-06-16 21:43:00,-999.9,-99.9,29.93,North,32767,-999.0,-999.0,255,-99.99,,,0.00,,Wunderground v.1.15,2013-06-17 02:43:00,
2013-06-16 21:48:00,-999.9,-99.9,29.94,North,32767,-999.0,-999.0,255,-99.99,,,0.00,,Wunderground v.1.15,2013-06-17 02:48:00,
2013-06-16 21:53:00,-999.9,-99.9,29.94,North,32767,-999.0,-999.0,255,-99.99,,,0.00,,Wunderground v.1.15,2013-06-17 02:53:00,
2013-06-16 21:58:00,-999.9,-99.9,29.94,North,32767,-999.0,-999.0,255,-99.99,,,0.00,,Wunderground v.1.15,2013-06-17 02:58:00,
2013-06-16 22:03:00,-999.9,-99.9,29.94,North,32767,-999.0,-999.0,255,-99.99,,,0.00,,Wunderground v.1.15,2013-06-17 03:03:00,
2013-06-16 22:08:00,-999.9,-99.9,29.94,North,32767,-999.0,-999.0,255,-99.99,,,0.00,,Wunderground v.1.15,2013-06-17 03:08:00,
2013-06-16 22:14:00,65.0,57.2,29.95,SW,236,0.0,0.0,76,0.00,,,0.00,0,Wunderground v.1.15,2013-06-17 03:14:00,
2013-06-16 22:19:00,64.6,57.2,29.95,SW,236,0.0,0.0,77,0.00,,,0.00,0,Wunderground v.1.15,2013-06-17 03:19:00,
2013-06-16 22:24:00,64.3,56.9,29.95,SW,236,0.0,0.0,77,0.00,,,0.00,0,Wunderground v.1.15,2013-06-17 03:24:00,
2013-06-16 22:29:00,64.1,57.1,29.95,SW,236,0.0,0.0,78,0.00,,,0.00,0,Wunderground v.1.15,2013-06-17 03:29:00,
2013-06-16 22:34:00,63.9,57.3,29.95,SW,236,0.0,0.0,79,0.00,,,0.00,0,Wunderground v.1.15,2013-06-17 03:34:00,
2013-06-16 22:39:00,63.8,57.2,29.95,SW,236,0.0,0.0,79,0.00,,,0.00,0,Wunderground v.1.15,2013-06-17 03:39:00,
2013-06-16 22:44:00,63.6,57.3,29.94,SW,236,0.0,0.0,80,0.00,,,0.00,0,Wunderground v.1.15,2013-06-17 03:44:00,
2013-06-16 22:49:00,63.6,57.3,29.94,SW,236,0.0,0.0,80,0.00,,,0.00,0,Wunderground v.1.15,2013-06-17 03:49:00,
2013-06-16 22:54:00,63.6,57.3,29.95,SW,236,0.0,0.0,80,0.00,,,0.00,0,Wunderground v.1.15,2013-06-17 03:54:00,
2013-06-16 22:59:00,-999.9,-99.9,29.95,North,32767,-999.0,0.0,255,-99.99,,,0.00,,Wunderground v.1.15,2013-06-17 03:59:00,
2013-06-16 23:01:00,-999.9,-99.9,29.94,North,32767,-999.0,-999.0,255,-99.99,,,0.00,,Wunderground v.1.15,2013-06-17 04:01:00,
2013-06-16 23:02:00,-999.9,-99.9,29.94,North,32767,-999.0,-999.0,255,-99.99,,,0.00,,Wunderground v.1.15,2013-06-17 04:02:00,
2013-06-16 23:03:00,-999.9,-99.9,29.95,North,32767,-999.0,-999.0,255,-99.99,,,0.00,,Wunderground v.1.15,2013-06-17 04:03:00,
2013-06-16 23:08:00,-999.9,-99.9,29.94,North,32767,-999.0,-999.0,255,-99.99,,,0.00,,Wunderground v.1.15,2013-06-17 04:08:00,
2013-06-16 23:13:00,-999.9,-99.9,29.95,North,32767,-999.0,-999.0,255,-99.99,,,0.00,,Wunderground v.1.15,2013-06-17 04:13:00,
2013-06-16 23:18:00,-999.9,-99.9,29.94,North,32767,-999.0,-999.0,255,-99.99,,,0.00,,Wunderground v.1.15,2013-06-17 04:18:00,
2013-06-16 23:23:00,-999.9,-99.9,29.94,North,32767,-999.0,-999.0,255,-99.99,,,0.00,,Wunderground v.1.15,2013-06-17 04:23:00,
2013-06-16 23:28:00,-999.9,-99.9,29.94,North,32767,-999.0,-999.0,255,-99.99,,,0.00,,Wunderground v.1.15,2013-06-17 04:28:00,
2013-06-16 23:33:00,-999.9,-99.9,29.94,North,32767,-999.0,-999.0,255,-99.99,,,0.00,,Wunderground v.1.15,2013-06-17 04:33:00,
2013-06-16 23:38:00,-999.9,-99.9,29.94,North,32767,-999.0,-999.0,255,-99.99,,,0.00,,Wunderground v.1.15,2013-06-17 04:38:00,
2013-06-16 23:43:00,-999.9,-99.9,29.95,North,32767,-999.0,-999.0,255,-99.99,,,0.00,,Wunderground v.1.15,2013-06-17 04:43:00,
2013-06-16 23:49:00,-999.9,-99.9,29.95,North,32767,-999.0,-999.0,255,-99.99,,,0.00,,Wunderground v.1.15,2013-06-17 04:49:00,
2013-06-16 23:54:00,-999.9,-99.9,29.94,North,32767,-999.0,-999.0,255,-99.99,,,0.00,,Wunderground v.1.15,2013-06-17 04:54:00,
2013-06-16 23:59:00,-999.9,-99.9,29.95,North,32767,-999.0,-999.0,255,-99.99,,,0.00,,Wunderground v.1.15,2013-06-17 04:59:00,